Regional Weather Roundup
Issued by NWS

Home | Current Version | Previous Version | Text Only | Print | Product List | Glossary Off
Versions: 1 2 3 4 5 6 7 8 9 10 11 12 13 14 15 16 17 18 19 20 21 22 23 24 25 26 27 28 29 30 31 32 33 34 35 36 37 38 39 40 41 42 43 44 45 46 47 48 49 50

000
ASUS43 KFSD 300102
RWRSD

WEATHER ROUNDUP FOR SOUTH DAKOTA
NATIONAL WEATHER SERVICE SIOUX FALLS SD
800 PM CDT WED MAR 29 2017

NOTE: "FAIR" INDICATES FEW OR NO CLOUDS BELOW 12,000 FEET WITH NO
SIGNIFICANT WEATHER AND/OR OBSTRUCTIONS TO VISIBILITY.


SDZ001>005-009-010-012>017-300200-
NORTHWEST AND NORTH CENTRAL SOUTH DAKOTA

CITY           SKY/WX    TMP DP  RH WIND       PRES   REMARKS
BUFFALO          N/A     58  32  37 NE3       29.83F
FAITH            N/A     51  40  65 MISG      29.94F
MOBRIDGE       CLOUDY    56  30  37 SE12      29.94S
$$

SDZ012>016-024>037-041>051-057-063-072>074-300200-
SOUTHWEST AND SOUTH CENTRAL SOUTH DAKOTA

CITY           SKY/WX    TMP DP  RH WIND       PRES   REMARKS
RAPID CTY ARPT CLEAR     51  39  63 SE8       29.94F
PIERRE         CLEAR     50  33  52 SE15      29.99S
CUSTER         MOCLDY    41  35  79 E9        29.96F
ELLSWORTH AFB  CLEAR     53  38  57 E7        29.93F
PHILIP         MOCLDY    52  40  63 SE15G24   29.96F
PINE RIDGE     CLEAR     50  39  66 E12       29.96S
SPEARFISH      FAIR      50  37  62 SE10      29.92F
WINNER         CLOUDY    47  36  65 E7        30.01F
$$

SDZ004>011-016>023-039-040-300200-
NORTHEAST SOUTH DAKOTA

CITY           SKY/WX    TMP DP  RH WIND       PRES   REMARKS
ABERDEEN       CLOUDY    50  33  52 SE14      30.04R
WATERTOWN      CLOUDY    43  35  73 E10G21    30.07F
BROOKINGS      CLOUDY    42  37  82 E14       30.05F
SISSETON         N/A     47  38  71 S14       30.08R
$$

SDZ017-020-022-023-036>040-048>070-300200-
SOUTHEAST SOUTH DAKOTA

CITY           SKY/WX    TMP DP  RH WIND       PRES   REMARKS
SIOUX FALLS    LGT RAIN  40  39  97 E15       30.03F
HURON          PTCLDY    47  36  65 E10       30.04F
CHAMBERLAIN    PTCLDY    49  36  61 E9        30.02S
MITCHELL       CLOUDY    45  37  73 E14       30.05F
YANKTON        CLOUDY    39  36  87 NE14      30.00S
$$

ABBREVIATIONS USED IN REMARKS
   TC - TEMPERATURE IN CELSIUS
  WCI - WIND CHILL INDEX
   HX - HEAT INDEX
  VSB - VISIBILITY





USA.gov is the U.S. government's official web portal to all federal, state and local government web resources and services.